World > North America > United States > New Hampshire   Wentworth Marina Website
Hourly regional weather for Wentworth Marina, New HampshireWentworth Marina, New Hampshire Regional Hourly Weather

Wentworth Marina, New Hampshire Regional Weather

regional weather wentworth marina, nhHOURLY REGIONAL WEATHER FOR WENTWORTH MARINA, NH
Lat: 43.06N, Lon: 70.73W 
Web Search

Helpful Tip: Abbreviated, 7 Day, 14 Day Forecasts. There is a weather forecast for every taste.

Feedback


°F Click to change Wentworth Marina hourly weather to Imperial units.Click to change Wentworth Marina hourly weather to Metric units. °C
Wentworth Marina Weather Map
UTC Time: 8/2/2021, 19:15
Your Time:

Wentworth Marina, NH Regional Weather

Expires:202108022000;;871997
ASUS41 KBOX 021914
RWRBOX

REGIONAL WEATHER ROUNDUP
NATIONAL WEATHER SERVICE TAUNTON MA
ISSUED BY NATIONAL WEATHER SERVICE NEW YORK NY
300 PM EDT MON AUG 02 2021

NOTE:  "FAIR" INDICATES FEW OR NO CLOUDS BELOW 12,000 FEET WITH NO 
SIGNIFICANT WEATHER AND/OR OBSTRUCTIONS TO VISIBILITY. 


MEZ002-015-021-024-NHZ003-005-008-011-012-014-VTZ005-008-022000-
NORTHERN NEW ENGLAND
  
CITY           SKY/WX    TMP DP  RH WIND       PRES   REMARKS
PORTLAND ME    CLOUDY    74  56  53 NW13      29.85R                  
BANGOR ME      CLOUDY    63  60  90 NW6       29.84R                  
CONCORD NH     PTSUNNY   76  57  51 NW9       29.90R                  
MANCHESTER NH  PTSUNNY   78  54  43 NW14      29.88R                  
NASHUA NH      NOT AVBL                                               
PORTSMOUTH NH  PTSUNNY   76  54  45 W9G20     29.87R                  
JAFFREY NH     PTSUNNY   73  55  53 NW6       29.94R                  
KEENE NH       MOSUNNY   75  54  47 N13G20    29.93R                  
BURLINGTON VT  MOSUNNY   73  54  51 N9        29.94R                  
MT. WASHINGTON FOG       43  43 100 NW36G53     N/A  VSB 0            
$$


SKY/WX - Weather  TMP - Temperature  DP - Dew Point  RH - Relative Humidity
WIND - Wind Direction/Speed PRES - Barometric Pressure VSB - Visibility
WCI - Wind Chill Index E13G22 Wind - East Wind 13 mph/Gusts of 22 mph